Vertical_Velocity
3 4 5 3 17 0 -0 -1 2 -3 -3 2 1 10 3 9 5 4 7 11 2 -1 -0 -0 -2 1 1 -0 -0 1 -3 0 2 -1 -2 -2 0 -2
-4 -0 14 18 3 1 -4 -9 -3 -3 -0 4 -2 1 7 5 3 1 4 2 0 0 -3 -2 -1 -2 -1 -1 -1 -0 0 0 -3 -0 -3 -1 -3 -2
3 -2 11 1 -4 3 -4 16 -3 -0 -6 1 2 6 -1 3 2 4 1 1 -3 -3 -4 -1 -1 -2 0 -0 -0 -1 -2 -2 2 -1 -2 0 -6 -7
6 2 2 2 2 0 5 -5 1 -4 -6 -1 -0 -1 2 1 2 -1 -3 -1 -1 -0 -2 1 1 1 1 -2 -3 0 1 -2 1 3 4 7 6 1
-1 -4 -1 -2 1 6 3 5 5 2 -2 -1 -1 -1 -2 -1 -1 -3 -1 -0 1 1 -1 -2 -2 2 -1 -6 -4 -4 -6 -7 -4 0 3 -3 8 5
14 1 7 1 4 -0 1 4 3 3 3 -1 -2 -3 -2 2 -4 0 3 -0 0 -1 -2 -3 -2 -3 1 -0 -3 1 -3 0 -1 -2 -5 -2 1 -2
1 4 2 3 0 4 2 7 3 -3 -2 -1 6 -4 2 2 -5 -4 -1 -0 1 -1 -2 1 0 0 2 -0 2 -4 0 0 -3 -9 -0 -3 0 -3
-0 -6 -3 -4 12 7 4 -2 -6 1 3 1 2 -3 -5 1 2 -2 -2 -0 1 -5 -1 4 -4 1 1 -1 -3 -4 -2 3 -2 -1 -7 -6 -0 -1
-5 11 10 10 8 6 -8 1 -1 -2 -4 -0 4 -0 -0 0 -1 1 1 1 -0 1 -0 9 -2 4 -6 -6 1 -2 -3 -4 -6 -3 -5 -4 -6 -1
-8 -10 -4 -5 -4 -3 -5 -1 -1 -2 1 -0 1 1 2 1 -3 -1 -2 -2 -5 -3 -5 -0 -0 2 3 -4 2 -4 -4 1 -3 -3 -0 6 2 8
-1 2 1 -1 -2 -0 5 2 1 2 2 4 2 1 -1 -2 -2 -3 -4 -3 1 3 -1 -7 -1 3 -3 1 -1 -1 -4 -1 -2 2 4 7 8 5
3 2 1 3 -2 4 5 0 4 -0 1 -4 3 -1 -1 -1 0 -2 2 -4 0 3 -5 -3 -1 -6 -1 4 0 -4 -7 -2 4 1 -3 6 4 8
2 3 0 3 -2 3 5 2 3 0 -0 -1 1 -1 -1 0 1 0 -1 -6 -3 -0 -3 -5 2 -8 -10 -8 2 -3 -2 2 -4 -1 5 15 9 12
-0 1 -1 -1 0 3 1 0 1 2 -3 2 2 1 -0 -1 -5 -4 -0 -3 -2 4 -5 -1 -7 0 -5 -5 -6 -1 -4 -1 4 6 3 13 13 10
1 -0 -0 0 -0 -2 -1 -2 -3 1 0 1 1 2 -1 -1 -1 -1 -3 -4 -3 -2 2 0 -4 -1 -4 -2 -5 -3 -3 -3 -2 3 6 7 13 8
2 -0 3 2 0 -1 -2 -3 -2 -1 1 -0 1 1 0 -3 1 -3 1 -1 -0 1 -0 -4 -3 1 1 3 -3 -1 -2 -5 -0 1 -0 4 4 5
2 1 -0 -0 -2 -1 0 2 1 -0 -1 -2 -0 1 1 -1 -2 -2 -0 -1 2 4 2 -3 -4 -3 -1 -1 -3 -3 -4 5 1 2 2 4 7 11
1 -0 -1 0 0 -0 1 -1 -3 -2 -3 -2 -2 -3 -1 0 1 0 -4 -1 3 0 1 1 1 -1 -2 1 -0 -0 -1 1 10 4 4 3 4 7
0 0 0 -0 -0 0 1 1 2 -1 0 -1 -2 -4 -4 -3 -2 1 -0 -3 -2 -1 2 -0 -1 -1 -1 -0 0 -4 -3 -1 8 4 2 4 6 10
1 1 1 2 2 1 1 1 1 -0 -1 -0 -1 0 -2 -1 -0 -0 -1 -0 -4 -2 -0 -1 -2 -1 1 1 -1 -2 -2 -2 9 3 2 5 2 5
-1 2 0 -1 -2 1 1 -2 -0 -0 -3 -2 -3 -1 -4 -3 -2 -2 0 -2 -5 -4 -1 -1 -4 -2 -1 1 -1 0 1 3 10 0 -2 0 1 5
-6 -6 -6 -4 -0 -1 1 1 -0 -1 0 -1 -1 0 -1 -1 -0 -0 -2 -1 -6 -3 -2 0 -0 -1 -2 6 1 -3 1 -1 10 -2 -5 4 3 8
-3 -2 -2 -3 -2 0 -2 0 1 3 0 -1 0 1 -1 1 -3 -2 -1 -2 -3 -2 -2 -1 0 -1 -0 3 -2 -1 -3 2 10 0 1 1 0 4
Height
5737 5741 5744 5747 5746 5747 5748 5748 5749 5747 5748 5747 5746 5744 5743 5742 5741 5741 5740 5738 5737 5736 5733 5732 5729 5728 5728 5726 5726 5723 5722 5720 5716 5714 5712 5709 5708 5707
5725 5731 5730 5731 5735 5737 5738 5738 5738 5736 5735 5735 5733 5731 5730 5730 5729 5729 5728 5727 5726 5725 5723 5721 5719 5717 5717 5715 5714 5712 5710 5709 5708 5705 5702 5700 5696 5695
5712 5717 5717 5720 5726 5727 5726 5724 5724 5724 5724 5721 5720 5718 5716 5716 5716 5717 5717 5716 5714 5712 5711 5709 5708 5707 5707 5705 5704 5702 5700 5700 5698 5695 5693 5690 5688 5685
5701 5705 5708 5712 5713 5713 5715 5715 5713 5711 5711 5710 5707 5705 5704 5704 5706 5708 5707 5705 5703 5701 5700 5699 5697 5696 5696 5695 5693 5690 5686 5686 5685 5684 5681 5678 5676 5675
5693 5696 5697 5700 5700 5703 5704 5704 5703 5701 5699 5699 5700 5697 5696 5695 5695 5696 5695 5694 5692 5692 5691 5689 5687 5687 5686 5683 5681 5679 5676 5674 5671 5669 5668 5666 5666 5664
5680 5684 5688 5688 5689 5692 5691 5692 5692 5690 5687 5688 5690 5688 5687 5686 5685 5685 5684 5683 5682 5681 5680 5678 5675 5675 5674 5672 5670 5666 5664 5661 5657 5654 5655 5654 5652 5651
5669 5671 5673 5678 5678 5679 5681 5679 5677 5677 5675 5677 5677 5677 5676 5676 5676 5676 5675 5674 5672 5670 5669 5666 5666 5665 5663 5662 5658 5654 5651 5649 5647 5645 5643 5641 5638 5638
5662 5663 5664 5665 5666 5666 5667 5666 5666 5669 5668 5667 5668 5666 5667 5666 5666 5666 5665 5664 5663 5661 5659 5658 5655 5652 5648 5646 5643 5640 5636 5633 5632 5629 5628 5626 5623 5623
5654 5656 5654 5654 5654 5654 5655 5655 5659 5660 5660 5659 5658 5659 5659 5658 5657 5656 5655 5655 5653 5649 5647 5645 5641 5638 5636 5630 5626 5623 5620 5616 5614 5612 5610 5610 5608 5608
5644 5645 5644 5645 5647 5648 5649 5649 5649 5651 5651 5650 5650 5649 5648 5647 5647 5646 5644 5643 5640 5636 5634 5631 5625 5621 5619 5614 5607 5604 5600 5597 5593 5591 5590 5589 5588 5589
5635 5637 5638 5637 5638 5640 5641 5641 5642 5643 5642 5640 5641 5639 5638 5637 5635 5634 5631 5629 5625 5621 5617 5615 5609 5604 5600 5594 5590 5584 5579 5576 5572 5570 5570 5572 5572 5574
5627 5630 5631 5631 5633 5633 5634 5635 5633 5632 5632 5632 5630 5628 5626 5624 5621 5619 5617 5612 5608 5605 5599 5595 5588 5585 5581 5576 5569 5563 5558 5555 5553 5553 5554 5557 5559 5559
5622 5623 5625 5626 5625 5624 5625 5626 5624 5623 5622 5620 5618 5616 5613 5610 5607 5603 5599 5595 5591 5586 5581 5576 5572 5565 5560 5556 5550 5544 5540 5539 5540 5541 5543 5544 5546 5548
5616 5617 5617 5615 5615 5616 5615 5614 5613 5611 5609 5606 5605 5601 5598 5595 5590 5585 5582 5577 5574 5569 5563 5558 5553 5545 5538 5533 5529 5528 5527 5527 5528 5528 5532 5534 5537 5539
5608 5607 5607 5607 5606 5604 5603 5600 5598 5597 5595 5592 5588 5585 5581 5578 5572 5568 5564 5560 5555 5551 5545 5538 5532 5524 5517 5514 5515 5516 5516 5518 5518 5520 5523 5527 5529 5532
5598 5597 5595 5594 5592 5590 5587 5584 5581 5579 5577 5573 5570 5567 5563 5559 5555 5550 5546 5541 5537 5531 5525 5518 5511 5504 5500 5501 5503 5505 5507 5508 5511 5514 5516 5519 5522 5525
5583 5581 5580 5577 5574 5572 5570 5567 5564 5561 5558 5555 5552 5548 5545 5540 5536 5531 5527 5522 5517 5511 5504 5496 5491 5485 5483 5486 5490 5495 5497 5500 5503 5506 5509 5512 5515 5518
5568 5565 5562 5560 5558 5554 5551 5548 5544 5541 5538 5535 5532 5528 5525 5521 5516 5511 5505 5501 5496 5490 5484 5477 5470 5466 5466 5471 5477 5481 5486 5490 5493 5497 5501 5504 5507 5511
5552 5549 5546 5543 5539 5536 5533 5530 5526 5522 5519 5515 5512 5507 5503 5499 5494 5489 5484 5479 5474 5470 5464 5457 5452 5449 5450 5457 5462 5468 5473 5478 5483 5487 5492 5496 5500 5503
5536 5532 5529 5525 5522 5518 5514 5510 5506 5502 5498 5493 5489 5484 5479 5475 5471 5467 5461 5457 5453 5449 5444 5438 5434 5434 5438 5444 5448 5455 5461 5466 5472 5477 5482 5487 5492 5496
5517 5513 5509 5505 5501 5495 5491 5487 5483 5478 5474 5469 5464 5460 5456 5453 5448 5444 5440 5435 5432 5429 5424 5419 5417 5418 5424 5431 5439 5446 5451 5455 5462 5468 5473 5479 5483 5488
5497 5493 5487 5482 5478 5474 5469 5464 5459 5453 5448 5443 5440 5437 5433 5429 5425 5422 5418 5415 5411 5409 5405 5403 5403 5407 5415 5422 5428 5434 5439 5445 5451 5458 5463 5470 5476 5480
5478 5473 5468 5462 5457 5451 5446 5441 5436 5430 5425 5421 5417 5413 5410 5406 5403 5401 5398 5394 5391 5389 5388 5389 5391 5397 5406 5412 5418 5424 5430 5435 5441 5448 5455 5462 5467 5471